Flag for United Arab Emirates Weather past 2 weeks in Al Ain, Abu Dhabi, United Arab Emirates

Now
90 °F

Clear.


Feels Like: 95 °F
Forecast: 78 / 102 °F
Wind: 3 mph from West

Location: Al Ain International Airport

Current Time: Sep 23, 2014 at 12:36:28 AM

Latest Report: Sep 23, 2014 at 12:00 AM


Visibility: 10 mi

Pressure: 29.74 "Hg

Humidity: 52%

Dew point: 70 °F

Location of Al AinLocation

Historic Weather in Al Ain — Graph

°F

Al Ain temperature yesterday

Maximum temperature yesterday: 106 °F (at 3:00 PM)
Minimum temperature yesterday: 82 °F (at 3:00 AM)
Average temperature yesterday: 94 °F

Past Weeks' High & Low Weather Summary

 TemperatureHumidityPressure
High109 °F (Sep 8, 1:00 PM)94% (Sep 21, 5:00 AM)29.86 "Hg (Sep 21, 5:00 AM)
Low77 °F (Sep 21, 5:00 AM)10% (Sep 14, 4:00 PM)29.59 "Hg (Sep 15, 3:00 PM)
Average95 °F41%29.70 "Hg
* Reported Sep 7 11:00 PM — Sep 22 11:00 PM, Al Ain, Weather by CustomWeather, © 2014

Note: Actual official high and low records may vary slightly from our data, if they occured in-between our weather recording intervals... More about our weather records

Advertising

Al Ain weather history for previous 24 hours

 ConditionsComfort  
Time TempWeatherWind HumidityBarometerVisibility
11:00 PM
Sep 22
91 °FClear.3 mph49%29.74 "Hg10 mi
10:00 PM93 °FPassing clouds.6 mph47%29.74 "HgN/A
9:00 PM95 °FClear.7 mph44%29.74 "Hg10 mi
8:00 PM97 °FClear.9 mph42%29.71 "Hg10 mi
7:00 PM102 °FClear.5 mph18%29.71 "Hg10 mi
6:00 PM104 °FPassing clouds.3 mph17%29.68 "Hg5 mi
5:00 PM104 °FPassing clouds.5 mph16%29.68 "Hg5 mi
4:00 PM106 °FPassing clouds.6 mph15%29.68 "Hg5 mi
3:00 PM106 °FClear.5 mph14%29.68 "Hg5 mi
2:00 PM104 °FClear.7 mph17%29.71 "Hg5 mi
1:00 PM102 °FClear.9 mph20%29.74 "Hg5 mi
12:00 PM100 °FClear.14 mph24%29.74 "Hg5 mi
11:00 AM99 °FClear.17 mph27%29.77 "Hg5 mi
10:00 AM95 °FClear.16 mph34%29.80 "Hg5 mi
9:00 AM91 °FClear.17 mph38%29.80 "Hg5 mi
8:00 AM88 °FClear.14 mph43%29.77 "Hg5 mi
7:00 AM84 °FClear.13 mph48%29.74 "Hg5 mi
6:00 AM84 °FClear.10 mph51%29.74 "Hg5 mi
5:00 AM84 °FClear.9 mph62%29.71 "Hg5 mi
4:00 AM82 °FClear.6 mph84%29.68 "Hg4 mi
3:00 AM82 °FClear.7 mph84%29.68 "Hg5 mi
2:00 AM84 °FClear.8 mph79%29.71 "Hg5 mi
1:00 AM84 °FClear.9 mph79%29.71 "Hg10 mi
12:00 AM86 °FClear.9 mph75%29.71 "Hg10 mi
Weather by CustomWeather, © 2014

See weather overviewHow to use our weather pages